User: anonymous   Login
Location: Banios
(43.0451°N, 0.2335°E)
Time: 21:59:54
(UTC+00:00)
Language:

Cosmos 2228 - Orbit

View from above orbital plane
View from above orbital plane
View from above satellite
View from above satellite

Ground track
Ground track

The orbit data is extracted from the following two-line orbital elements,

1 22286U 92094A   21110.51591489  .00000293  00000-0  28832-4 0  9992
2 22286  82.5174 130.1061 0022185 137.9369 222.3557 14.88261011510113
Epoch (UTC): 20 April 2021 12:22:55
Eccentricity: 0.0022185
inclination: 82.5174°
perigee height: 588 km
apogee height: 619 km
right ascension of ascending node: 130.1061°
argument of perigee: 137.9369°
revolutions per day: 14.88261011
mean anomaly at epoch: 222.3557°
orbit number at epoch: 51011

The dashed part of the orbit path shows where the satellite is in the earth's shadow,  

DLR